Content
SEND FEEDBACK

Daily
Averages
Monthly
Summary
United States of America

CANUTE, OKLAHOMA


Home > North America > United States > Oklahoma
Elevation: 1951 feet     Latitude: 35 25N     Longitude: 099 23W

WEATHER
 
SELECT A DAY
Number of Records: 214,333;   Date Range: 5/19/05 - 9/22/14
 
SHARE

PRINT THIS DATA

[ ← Previous Day ]
WEATHER ALMANAC - FEBRUARY 13, 2013
[ Next Day → ]
[ °C ]   °F
Weather ElementAverageHighLow
Temperature29.6 °F42.8 °F (3:35 pm) (7:55 am)
Dewpoint23.6 °F30.2 °F (12:35 am) (7:00 pm)
Humidity78.1 %93 % (12:35 am)53 % (4:55 pm)
Barometer30.03 in30.08 in (10:55 am)29.97 in (6:15 pm)
Wind Speed4.1 mph6.9 mph (1:35 am)
Weather ElementAverage
Visibility7.6 mi
Wind DirectionSSW (205.3 °)

Weather ElementTotal
Precipitation---
Heating Degree Days43.6 (Base 65)
Averaged from 68 records on February 13, 2013
WEATHER CONDITIONS BREAKOUT
WIND DIRECTION BREAKOUT
WEATHER BY HOUR - FEBRUARY 13, 2013
[ °C ]   °F
Local TimeTemperatureDewpointHumidityBarometerVisibilityWind DirectionWind SpeedGust SpeedPrecipitationEventsConditions
12:35 AM32.0 °F30.2 °F93 %30.07 in7.0 miWest (280°)3.5 mphOvercast
1:15 AM28.4 °F26.6 °F93 %30.06 in1.8 miWNW (300°)5.8 mphMist
1:35 AM28.4 °F26.6 °F93 %30.07 in2.5 miWNW (290°)6.9 mphClear
1:55 AM26.6 °F23.0 °F86 %30.07 in4.0 miWNW (290°)4.6 mphClear
2:15 AM28.4 °F26.6 °F93 %30.06 in4.0 miWNW (290°)6.9 mphClear
2:35 AM26.6 °F24.8 °F93 %30.06 in4.0 miWest (280°)4.6 mphClear
2:55 AM26.6 °F24.8 °F93 %30.06 in5.0 miWNW (300°)6.9 mphClear
3:15 AM26.6 °F24.8 °F93 %30.05 in7.0 miWNW (300°)6.9 mphClear
3:35 AM26.6 °F23.0 °F86 %30.04 in5.0 miWest (280°)5.8 mphClear
3:55 AM26.6 °F23.0 °F86 %30.04 in5.0 miWNW (290°)5.8 mphClear
4:15 AM24.8 °F23.0 °F93 %30.03 in5.0 miWest (270°)3.5 mphClear
4:35 AM26.6 °F24.8 °F93 %30.03 in7.0 miWest (280°)3.5 mphClear
4:55 AM24.8 °F23.0 °F93 %30.03 in5.0 miCalmClear
5:15 AM24.8 °F23.0 °F93 %30.03 in3.0 miCalmClear
5:35 AM24.8 °F23.0 °F93 %30.03 in3.0 miCalmClear
5:55 AM23.0 °F21.2 °F93 %30.03 in0.2 miCalmFogLight Freezing Fog
6:15 AM24.8 °F23.0 °F93 %30.03 in1.0 miCalmMist
6:35 AM21.2 °F19.4 °F93 %30.04 in0.2 miCalmFogLight Freezing Fog
6:55 AM21.2 °F19.4 °F93 %30.04 in0.2 miCalmFogLight Freezing Fog
7:15 AM21.2 °F19.4 °F93 %30.04 in0.2 miCalmFogLight Freezing Fog
7:35 AM19.4 °F17.6 °F93 %30.04 in0.2 miNW (310°)3.5 mphFogLight Freezing Fog
7:55 AM0.0 °F0.0 °F30.05 in1.2 miNNW (330°)3.5 mphMist
8:35 AM0.0 °F0.0 °F30.06 in2.5 miCalmClear
8:55 AM0.0 °F0.0 °F30.06 in7.0 miWest (270°)3.5 mphClear
9:15 AM0.0 °F0.0 °F30.07 in7.0 miWest (280°)4.6 mphClear
9:35 AM0.0 °F0.0 °F30.07 in7.0 miWest (280°)4.6 mphClear
9:55 AM0.0 °F0.0 °F30.07 in10.0 miWest (280°)4.6 mphClear
10:15 AM26.6 °F24.8 °F93 %30.07 in10.0 miWest (260°)4.6 mphClear
10:35 AM28.4 °F26.6 °F93 %30.07 in10.0 miWest (280°)5.8 mphClear
10:55 AM30.2 °F24.8 °F80 %30.08 in10.0 miWest (280°)6.9 mphClear
11:15 AM32.0 °F24.8 °F75 %30.07 in10.0 miWest (280°)5.8 mphClear
11:35 AM32.0 °F24.8 °F75 %30.07 in10.0 miWNW (290°)6.9 mphClear
11:55 AM32.0 °F24.8 °F75 %30.07 in10.0 miWest (280°)6.9 mphClear
12:15 PM33.8 °F26.6 °F75 %30.07 in10.0 miSW (220°)4.6 mphClear
12:35 PM33.8 °F26.6 °F75 %30.06 in10.0 miWSW (250°)3.5 mphClear
12:55 PM35.6 °F26.6 °F70 %30.05 in10.0 miWest (260°)4.6 mphClear
1:15 PM35.6 °F26.6 °F70 %30.05 in10.0 miWest (280°)6.9 mphClear
1:35 PM37.4 °F26.6 °F65 %30.04 in10.0 miWNW (290°)4.6 mphClear
1:55 PM37.4 °F26.6 °F65 %30.03 in10.0 miWest (260°)5.8 mphClear
2:15 PM37.4 °F26.6 °F65 %30.02 in10.0 miWSW (250°)4.6 mphClear
2:35 PM39.2 °F28.4 °F65 %30.01 in10.0 miSW (230°)3.5 mphClear
2:55 PM41.0 °F28.4 °F61 %30.00 in10.0 miSW (230°)4.6 mphClear
3:15 PM41.0 °F28.4 °F61 %30.00 in10.0 miSSW (200°)5.8 mphClear
3:35 PM42.8 °F28.4 °F57 %30.00 in10.0 miSSW (200°)5.8 mphClear
3:55 PM42.8 °F28.4 °F57 %30.00 in10.0 miSSW (200°)6.9 mphClear
4:15 PM42.8 °F30.2 °F61 %30.00 in10.0 miWSW (240°)6.9 mphClear
4:35 PM41.0 °F28.4 °F61 %29.99 in10.0 miSW (220°)6.9 mphClear
4:55 PM42.8 °F26.6 °F53 %29.99 in10.0 miSW (220°)4.6 mphClear
5:15 PM42.8 °F26.6 °F53 %29.98 in10.0 miSW (230°)5.8 mphClear
5:35 PM42.8 °F26.6 °F53 %29.98 in10.0 miWSW (240°)5.8 mphClear
5:55 PM42.8 °F26.6 °F53 %29.98 in10.0 miWSW (240°)4.6 mphClear
6:15 PM41.0 °F26.6 °F57 %29.97 in10.0 miWSW (240°)4.6 mphClear
6:35 PM37.4 °F28.4 °F70 %29.97 in10.0 miWSW (240°)3.5 mphClear
6:55 PM37.4 °F28.4 °F70 %29.97 in10.0 miSSW (210°)5.8 mphClear
7:15 PM35.6 °F28.4 °F75 %29.97 in10.0 miSSW (210°)5.8 mphClear
7:35 PM35.6 °F28.4 °F75 %29.97 in10.0 miSSW (210°)5.8 mphClear
7:55 PM35.6 °F28.4 °F75 %29.98 in10.0 miSouth (190°)4.6 mphClear
8:15 PM35.6 °F28.4 °F75 %29.98 in10.0 miSouth (190°)5.8 mphClear
8:35 PM33.8 °F28.4 °F81 %29.98 in10.0 miCalmClear
8:55 PM35.6 °F28.4 °F75 %29.98 in10.0 miCalmClear
9:15 PM35.6 °F28.4 °F75 %29.99 in10.0 miSSW (200°)3.5 mphClear
9:35 PM33.8 °F28.4 °F81 %29.99 in10.0 miCalmClear
10:15 PM30.2 °F26.6 °F86 %30.00 in10.0 miNNW (340°)3.5 mphClear
10:35 PM32.0 °F26.6 °F80 %30.00 in10.0 miCalmClear
10:55 PM32.0 °F26.6 °F80 %30.00 in10.0 miWSW (240°)3.5 mphClear
11:15 PM32.0 °F26.6 °F80 %30.01 in10.0 miWNW (290°)4.6 mphClear
11:35 PM32.0 °F28.4 °F87 %30.01 in10.0 miWest (270°)4.6 mphClear
11:55 PM32.0 °F26.6 °F80 %30.01 in10.0 miCalmClear
Hourly data recorded from KCLK, located miles away from Canute, Oklahoma







STORIES FROM OUR PARTNERS